Location: Göttingen
(51.5413°N, 9.9158°E)
Time: 11:26:51
(UTC+02:00)

POLYITAN 1 - Visible Passes

Search period start: 29 June 2022 00:00
Search period end: 09 July 2022 00:00
Orbit: 586 x 606 km, 98.0° (Epoch: 28 June)

Date Brightness Start Highest point End Pass type
(mag) Time Alt. Az. Time Alt. Az. Time Alt. Az.
29 Jun ? 02:58:10 10° NNE 03:02:19 52° E 03:05:49 14° S visible
30 Jun ? 03:08:01 10° NNE 03:12:14 65° ESE 03:15:48 14° S visible
01 Jul ? 01:45:03 10° ENE 01:45:48 10° E 01:46:33 10° E visible
01 Jul ? 03:17:52 10° NNE 03:22:08 81° ESE 03:25:46 14° SSW visible
02 Jul ? 01:53:49 10° ENE 01:55:49 13° E 01:57:49 10° ESE visible
02 Jul ? 03:27:46 10° NNE 03:32:01 82° WNW 03:35:45 13° SSW visible
03 Jul ? 02:03:10 10° NE 02:05:50 16° E 02:08:28 10° SE visible
03 Jul ? 03:37:40 10° N 03:41:54 67° WNW 03:45:43 12° SSW visible
04 Jul ? 02:12:41 10° NE 02:15:49 20° E 02:18:55 10° SE visible
04 Jul ? 03:47:36 10° N 03:51:45 54° WNW 03:55:41 11° SW visible
05 Jul ? 02:22:19 10° NE 02:25:47 24° E 02:28:59 11° SE visible
05 Jul ? 03:57:33 10° N 04:01:35 44° WNW 04:05:37 10° SW visible
06 Jul ? 02:32:00 10° NE 02:35:44 29° E 02:38:56 13° SSE visible
06 Jul ? 04:07:31 10° N 04:11:24 36° WNW 04:15:18 10° SW visible
07 Jul ? 02:41:44 10° NNE 02:45:41 36° E 02:48:54 14° SSE visible
07 Jul ? 04:17:31 10° N 04:21:13 30° WNW 04:24:55 10° SW visible
08 Jul ? 02:51:30 10° NNE 02:55:36 44° E 02:58:51 15° SSE visible
